Walnut Ridge, AR

3:13 AM CDT on May 24, 2017 (GMT -0500)
Walnut Ridge Regional

Weather History for KARG - November, 2011

Change the Weather History Date:

Saturday, November 19, 2011

  Actual Average Record
Temperature  
Mean Temperature 54 °F -  
Max Temperature 64 °F 55 °F 66 °F (2003)
Min Temperature 44 °F 39 °F 26 °F (2000)
Degree Days  
Heating Degree Days 11    
Growing Degree Days 4 (Base 50)    
Moisture  
Dew Point 46 °F    
Average Humidity 73    
Maximum Humidity 87    
Minimum Humidity 62    
Precipitation  
Precipitation 0.00 in - - ()
Sea Level Pressure  
Sea Level Pressure 30.01 in    
Wind  
Wind Speed 15 mph (South)    
Max Wind Speed 29 mph    
Max Gust Speed 34 mph    
Visibility 10 miles    
Events      
Averages and records for this station are not official NWS values.
T = Trace of Precipitation, MM = Missing Value Source: NWS Daily Summary

Daily Weather History Graph

Daily Weather History Graph

Search for Another Location

Airport or City:

Trip Planner

Search our weather history database for the weather conditions in past years. The results will help you decide how hot, cold, wet, or windy it might be!

Date:

Astronomy

Nov. 19, 2011 Rise Set
Actual Time 6:44 AM CST 4:53 PM CST
Civil Twilight 6:16 AM CST 5:21 PM CST
Nautical Twilight 5:45 AM CST 5:52 PM CST
Astronomical Twilight 5:14 AM CST 6:22 PM CST
Moon 12:16 AM CST (11/19) 1:01 PM CST (11/19)
Length of Visible Light 11h 04m
Length of Day
10h 09m
Last Quarter, 38% of the Moon is Illuminated
Nov 19
Last Quarter
Nov 25
New
Dec 2
First Quarter
Dec 10
Full
Dec 17
Last Quarter

Hourly Weather History & Observations

Time (CST) Temp. Windchill Dew Point Humidity Pressure Visibility Wind Dir Wind Speed Gust Speed Precip Events Conditions
12:15 AM 44.6 °F 39.2 °F 33.8 °F 66% 30.08 in 10.0 mi South 10.4 mph - N/A   Clear
12:35 AM 44.6 °F 39.2 °F 33.8 °F 66% 30.08 in 10.0 mi South 10.4 mph - N/A   Clear
12:55 AM 44.6 °F 39.7 °F 33.8 °F 66% 30.07 in 10.0 mi South 9.2 mph - N/A   Scattered Clouds
1:15 AM 44.6 °F 39.2 °F 33.8 °F 66% 30.07 in 10.0 mi South 10.4 mph - N/A   Mostly Cloudy
1:35 AM 44.6 °F 39.2 °F 33.8 °F 66% 30.06 in 10.0 mi SSE 10.4 mph - N/A   Overcast
2:15 AM 46.4 °F 40.4 °F 35.6 °F 66% 30.05 in 10.0 mi SSE 13.8 mph - N/A   Overcast
2:35 AM 46.4 °F 41.5 °F 33.8 °F 62% 30.04 in 10.0 mi SSE 10.4 mph - N/A   Overcast
2:55 AM 46.4 °F 41.1 °F 35.6 °F 66% 30.04 in 10.0 mi South 11.5 mph - N/A   Overcast
3:15 AM 46.4 °F 41.1 °F 35.6 °F 66% 30.03 in 10.0 mi SSE 11.5 mph - N/A   Overcast
3:35 AM 46.4 °F 40.4 °F 35.6 °F 66% 30.02 in 10.0 mi South 13.8 mph - N/A   Overcast
3:55 AM 46.4 °F 40.1 °F 35.6 °F 66% 30.03 in 10.0 mi South 15.0 mph - N/A   Overcast
4:15 AM 46.4 °F 40.7 °F 35.6 °F 66% 30.03 in 10.0 mi SSE 12.7 mph - N/A   Overcast
4:35 AM 46.4 °F 42.4 °F 37.4 °F 71% 30.03 in 10.0 mi South 8.1 mph - N/A   Overcast
5:15 AM 46.4 °F 41.1 °F 37.4 °F 71% 30.03 in 10.0 mi SSE 11.5 mph - N/A   Overcast
5:35 AM 46.4 °F 40.7 °F 37.4 °F 71% 30.03 in 10.0 mi SSE 12.7 mph - N/A   Overcast
5:55 AM 46.4 °F 40.4 °F 39.2 °F 76% 30.02 in 10.0 mi SSE 13.8 mph - N/A   Overcast
6:15 AM 46.4 °F 40.4 °F 39.2 °F 76% 30.02 in 10.0 mi South 13.8 mph - N/A   Overcast
6:55 AM 48.2 °F - 42.8 °F 82% 30.03 in 10.0 mi South 12.7 mph - N/A   Overcast
7:15 AM 48.2 °F - 42.8 °F 82% 30.04 in 10.0 mi South 13.8 mph - N/A   Overcast
7:35 AM 48.2 °F - 44.6 °F 87% 30.04 in 10.0 mi South 15.0 mph - N/A   Overcast
7:55 AM 50.0 °F - 44.6 °F 82% 30.04 in 10.0 mi South 16.1 mph - N/A   Overcast
8:15 AM 50.0 °F - 44.6 °F 82% 30.04 in 10.0 mi South 15.0 mph 21.9 mph N/A   Overcast
8:35 AM 51.8 °F - 44.6 °F 76% 30.04 in 10.0 mi South 15.0 mph - N/A   Overcast
8:55 AM 51.8 °F - 46.4 °F 82% 30.03 in 10.0 mi South 16.1 mph 20.7 mph N/A   Overcast
9:15 AM 53.6 °F - 46.4 °F 77% 30.02 in 10.0 mi South 17.3 mph 21.9 mph N/A   Overcast
9:35 AM 53.6 °F - 46.4 °F 77% 30.03 in 10.0 mi South 18.4 mph 23.0 mph N/A   Overcast
9:55 AM 53.6 °F - 46.4 °F 77% 30.03 in 10.0 mi South 16.1 mph 24.2 mph N/A   Overcast
10:15 AM 55.4 °F - 48.2 °F 77% 30.04 in 10.0 mi South 20.7 mph 24.2 mph N/A   Overcast
10:55 AM 55.4 °F - 48.2 °F 77% 30.02 in 10.0 mi South 23.0 mph 32.2 mph N/A   Mostly Cloudy
11:15 AM 57.2 °F - 48.2 °F 72% 30.02 in 10.0 mi South 24.2 mph 29.9 mph N/A   Mostly Cloudy
11:35 AM 59.0 °F - 50.0 °F 72% 30.01 in 10.0 mi South 27.6 mph 32.2 mph N/A   Mostly Cloudy
11:55 AM 60.8 °F - 51.8 °F 72% 29.99 in 10.0 mi South 27.6 mph 32.2 mph N/A   Mostly Cloudy
12:15 PM 60.8 °F - 51.8 °F 72% 29.98 in 10.0 mi South 26.5 mph 33.4 mph N/A   Overcast
12:35 PM 60.8 °F - 51.8 °F 72% 29.97 in 10.0 mi South 26.5 mph - N/A   Overcast
12:55 PM 62.6 °F - 53.6 °F 72% 29.95 in 10.0 mi South 28.8 mph 34.5 mph N/A   Mostly Cloudy
1:35 PM 62.6 °F - 53.6 °F 72% 29.94 in 10.0 mi South 24.2 mph 29.9 mph N/A   Scattered Clouds
1:55 PM 62.6 °F - 53.6 °F 72% 29.94 in 10.0 mi South 21.9 mph 31.1 mph N/A   Overcast
2:15 PM 64.4 °F - 53.6 °F 68% 29.94 in 10.0 mi South 20.7 mph 26.5 mph N/A   Overcast
2:35 PM 64.4 °F - 55.4 °F 73% 29.94 in 10.0 mi South 21.9 mph 26.5 mph N/A   Mostly Cloudy
2:55 PM 64.4 °F - 53.6 °F 68% 29.94 in 10.0 mi South 24.2 mph 28.8 mph N/A   Scattered Clouds
3:15 PM 64.4 °F - 55.4 °F 73% 29.93 in 10.0 mi South 23.0 mph 27.6 mph N/A   Scattered Clouds
3:35 PM 62.6 °F - 55.4 °F 77% 29.94 in 10.0 mi South 18.4 mph 24.2 mph N/A   Mostly Cloudy
3:55 PM 62.6 °F - 55.4 °F 77% 29.94 in 10.0 mi South 18.4 mph 25.3 mph N/A   Overcast
4:15 PM 62.6 °F - 55.4 °F 77% 29.95 in 10.0 mi South 17.3 mph - N/A   Mostly Cloudy
4:35 PM 62.6 °F - 55.4 °F 77% 29.95 in 10.0 mi South 17.3 mph - N/A   Mostly Cloudy
4:55 PM 62.6 °F - 55.4 °F 77% 29.95 in 10.0 mi South 15.0 mph 19.6 mph N/A   Mostly Cloudy
5:15 PM 62.6 °F - 55.4 °F 77% 29.96 in 10.0 mi South 12.7 mph - N/A   Overcast
5:35 PM 62.6 °F - 55.4 °F 77% 29.97 in 10.0 mi South 12.7 mph - N/A   Overcast
5:55 PM 62.6 °F - 55.4 °F 77% 29.97 in 10.0 mi South 15.0 mph - N/A   Overcast
6:15 PM 62.6 °F - 57.2 °F 82% 29.97 in 10.0 mi South 12.7 mph - N/A   Overcast
6:35 PM 62.6 °F - 57.2 °F 82% 29.97 in 10.0 mi South 15.0 mph - N/A   Overcast
6:56 PM 62.6 °F - 57.2 °F 82% 29.97 in 10.0 mi South 15.0 mph - N/A   Overcast
7:15 PM 62.6 °F - 57.2 °F 82% 29.98 in 10.0 mi South 12.7 mph - N/A   Overcast
7:35 PM 62.6 °F - 57.2 °F 82% 29.98 in 10.0 mi South 11.5 mph - N/A   Overcast
7:55 PM 62.6 °F - 57.2 °F 82% 29.97 in 10.0 mi SSE 13.8 mph - N/A   Scattered Clouds
8:15 PM 62.6 °F - 57.2 °F 82% 29.97 in 10.0 mi South 15.0 mph - N/A   Clear
8:35 PM 62.6 °F - 57.2 °F 82% 29.97 in 10.0 mi South 15.0 mph - N/A   Scattered Clouds
8:55 PM 62.6 °F - 57.2 °F 82% 29.99 in 10.0 mi South 13.8 mph - N/A   Scattered Clouds
9:15 PM 62.6 °F - 57.2 °F 82% 30.00 in 10.0 mi South 10.4 mph - N/A   Mostly Cloudy
9:35 PM 62.6 °F - 57.2 °F 82% 30.00 in 10.0 mi South 9.2 mph - N/A   Overcast
10:55 PM 64.4 °F - 57.2 °F 77% 30.04 in 10.0 mi SW 3.5 mph - N/A   Overcast
11:15 PM 64.4 °F - 57.2 °F 77% 30.04 in 10.0 mi South 9.2 mph - N/A   Overcast
11:35 PM 64.4 °F - 57.2 °F 77% 30.04 in 10.0 mi South 9.2 mph - N/A   Overcast
11:55 PM 64.4 °F - 57.2 °F 77% 30.04 in 10.0 mi South 11.5 mph - N/A   Overcast